Flag for U.S.A. Weather past 2 weeks in Columbus, Georgia, U.S.A.

Now
82 °F

Sunny.


Feels Like: 85 °F
Forecast: 70 / 81 °F
Wind: 8 mph from Southeast

Location: Columbus Metropolitan Airport

Current Time: Aug 29, 2015 at 5:11:12 PM

Latest Report: Aug 29, 2015 at 3:51 PM


Visibility: 10 mi

Pressure: 30.06 "Hg

Humidity: 65%

Dew point: 69 °F

Location of ColumbusLocation

Historic Weather in Columbus — Graph

°F

Columbus temperature yesterday

Maximum temperature yesterday: 87 °F (at 2:51 PM)
Minimum temperature yesterday: 72 °F (at 4:51 AM)
Average temperature yesterday: 77 °F

Past Weeks' High & Low Weather Summary

 TemperatureHumidityPressure
High93 °F (Aug 24, 4:51 PM)100% (Aug 23, 7:53 AM)30.15 "Hg (Aug 23, 7:53 AM)
Low63 °F (Aug 26, 6:51 AM)29% (Aug 25, 6:51 PM)29.87 "Hg (Aug 24, 6:51 PM)
Average79 °F72%30.00 "Hg
* Reported Aug 14 3:51 PM — Aug 29 3:51 PM, Columbus, Weather by CustomWeather, © 2015

Note: Actual official high and low records may vary slightly from our data, if they occured in-between our weather recording intervals... More about our weather records

Advertising

Columbus weather history for previous 24 hours

 ConditionsComfort  
Time TempWeatherWind HumidityBarometerVisibility
3:51 PM
Sat, Aug 29
82 °FSunny.8 mph65%30.06 "Hg10 mi
2:51 PM82 °FBroken clouds.9 mph67%30.09 "Hg10 mi
1:51 PM81 °FScattered clouds.9 mph72%30.11 "Hg10 mi
12:51 PM79 °FMostly cloudy.6 mph79%30.14 "Hg10 mi
11:51 AM77 °FLight rain. Partly sunny.7 mph85%30.15 "Hg10 mi
10:51 AM75 °FLight rain. Fog.6 mph90%30.14 "Hg4 mi
9:51 AM74 °FFog.6 mph91%30.14 "Hg4 mi
8:51 AM73 °FLight rain. Fog.7 mph90%30.13 "Hg4 mi
7:51 AM72 °FClear.6 mph93%30.11 "Hg7 mi
6:51 AM72 °FClear.6 mph93%30.09 "Hg9 mi
5:51 AM72 °FClear.5 mph93%30.09 "Hg9 mi
4:51 AM72 °FClear.3 mph93%30.08 "Hg9 mi
3:51 AM72 °FClear.5 mph93%30.09 "Hg9 mi
2:51 AM72 °FPassing clouds.6 mph93%30.09 "Hg10 mi
1:51 AM73 °FClear.6 mph90%30.11 "Hg10 mi
12:51 AM73 °FClear.3 mph90%30.12 "Hg10 mi
11:51 PM
Fri, Aug 28
74 °FClear.6 mph88%30.11 "Hg10 mi
10:51 PM73 °FClear.No wind90%30.11 "Hg10 mi
9:51 PM75 °FClear.5 mph88%30.08 "Hg10 mi
8:51 PM75 °FSunny.5 mph88%30.06 "Hg10 mi
7:51 PM75 °FSunny.6 mph94%30.04 "Hg10 mi
6:51 PM76 °FSunny.3 mph88%30.03 "Hg10 mi
5:59 PM73 °FPassing clouds.6 mph94%30.05 "Hg10 mi
Weather by CustomWeather, © 2015

See weather overviewHow to use our weather pages